www.pogodaiklimat.ru

Погода и климат >> Архив погоды >> Индия >> Balasore


ПОГОДА в Balasore

  • Прогноз погоды в Balasore
  • Монитор погоды в Balasore
  • Климат города

АРХИВ ПОГОДЫ в Balasore

Время (UTC), дата Ветер
(напр.,м/с)
 
Видим.   Явления Облачность Т
(С)
Тd
(С)
f
(%)
Тe
(С)
Тes
(С)
Комфортность P
(гПа)
Po
(гПа)
Тmin
(С)
Tmax
(С)
R
(мм)
R24
(мм)
S
(см)
12 10.11 штиль 0 4000 м 3/0
[Ac trans]
+26.4 +21.3 74 +34 +34 очень
душно
1010.6 1011.0 +31.0
15 10.11 штиль 0 4000 м 3/0
[Ac trans]
+24.2 +20.8 81 +30 +30 очень
душно
1012.7 1013.0
18 10.11 штиль 0 4000 м 3/0
[Ci fib]
+22.8 +20.7 88 +30 +30 очень
душно
1012.6 1013.0
21 10.11 штиль 0 4000 м 3/0
[Ci fib]
+21.8 +19.9 89 +27 +27 душно 1011.7 1012.0
00 11.11 С 1 4000 м 3/0
[Ci fib]
+19.8 +17.9 89 +24 +24 комфорт 1013.1 1013.0
03 11.11 С 1 4000 м 3/0
[Ci fib]
+24.0 +16.2 62 +27 +33 жарко 1015.0 1015.0 +17.1
06 11.11 С 1 4000 м 3/0
[Ci fib]
+28.0 +19.4 60 +34 +48 очень
душно
1014.0 1014.0
09 11.11 С 1 4000 м 3/0
[Ci fib]
+29.6 +18.8 52 +35 +42 очень
душно
1010.9 1011.0
12 11.11 штиль 0 4000 м 3/0
[Ci fib]
+26.0 +20.5 72 +32 +32 очень
душно
1011.7 1012.0 +30.8
15 11.11 штиль 0 4000 м 3/0
[Ci fib]
+23.4 +20.3 83 +31 +31 очень
душно
1013.7 1014.0
18 11.11 С 1 4000 м 3/0
[Ci fib]
+21.4 +19.8 91 +26 +26 душно 1013.6 1014.0
21 11.11 С 1 4000 м 3/0
[Ci fib]
+20.4 +19.5 95 +26 +26 душно 1012.7 1013.0
00 12.11 С 1 4000 м 3/0 600 м
[Ac trans]
+19.8 +17.5 87 +24 +24 комфорт 1012.8 1013.0
03 12.11 С 1 4000 м 3/0
[Ci fib]
+24.2 +18.5 70 +29 +34 душно 1014.0 1014.0 +17.0
06 12.11 С 2 4000 м 5/4 600 м
[Sc Ci fib]
+28.8 +18.9 55 +34 +41 очень
душно
1012.5 1013.0
09 12.11 С 1 4000 м 8/5 600 м
[Sc diur, vesp Ci fib]
+29.0 +19.9 58 +35 +38 очень
душно
1009.6 1010.0
12 12.11 С 1 4000 м 6/3 600 м
[Sc Ci fib]
+26.4 +20.6 70 +33 +33 очень
душно
1010.1 1010.0 +30.1
15 12.11 штиль 0 4000 м 6/3 600 м
[Sc Ci fib]
+23.0 +20.2 84 +30 +30 очень
душно
1011.7 1012.0
18 12.11 штиль 0 4000 м 3/0 600 м
[Ci fib]
+23.4 +18.7 75 +30 +30 очень
душно
1011.5 1012.0
21 12.11 штиль 0 4000 м 3/0
[Ci fib]
+22.4 +18.3 78 +28 +28 душно 1010.8 1011.0
00 13.11 С 1 4000 м 3/0
[Ci fib]
+20.0 +17.7 87 +24 +24 комфорт 1010.6 1011.0
03 13.11 С 1 4000 м 4/0
[Ci fib]
+24.4 +19.1 72 +29 +34 душно 1012.6 1013.0 +17.0
06 13.11 С 2 4000 м 4/4 600 м
[Sc diur, vesp]
+29.4 +18.6 52 +34 +43 очень
душно
1011.3 1011.0
09 13.11 С 1 4000 м 3/0
[Ci fib]
+29.6 +18.8 52 +35 +42 очень
душно
1007.9 1008.0
12 13.11 штиль 0 4000 м 3/0
[Ci fib]
+26.4 +21.3 74 +34 +34 очень
душно
1008.7 1009.0 +30.8
15 13.11 штиль 0 4000 м 3/0
[Ci fib]
+23.6 +20.5 83 +29 +29 душно 1010.3 1010.0
18 13.11 штиль 0 4000 м 3/0
[Ci fib]
+22.4 +19.6 84 +28 +28 душно 1010.7 1011.0
21 13.11 штиль 0 4000 м 3/0
[Ci fib]
+21.4 +18.5 84 +26 +26 душно 1010.0 1010.0
00 14.11 штиль 0 4000 м 3/0
[Ci fib]
+20.0 +18.1 89 +23 +23 комфорт 1010.4 1010.0
03 14.11 С 1 4000 м 3/0
[Ci fib]
+24.0 +18.0 69 +28 +33 душно 1013.0 1013.0 +17.5
06 14.11 С 1 4000 м 3/0
[Ci fib]
+29.0 +19.9 58 +35 +49 очень
душно
1011.3 1011.0
09 14.11 С 1 4000 м 3/0
[Ci fib]
+29.2 +20.1 58 +36 +42 очень
душно
1009.3 1009.0
12 14.11 штиль 0 4000 м 4/0
[Ci fib]
+26.4 +21.9 76 +34 +34 очень
душно
1010.1 1010.0 +31.0
15 14.11 штиль 0 4000 м 3/0
[Ci fib]
+24.2 +21.5 85 +31 +31 очень
душно
1012.1 1012.0
18 14.11 штиль 0 4000 м 3/0
[Ci fib]
+22.6 +20.4 87 +29 +29 очень
душно
1012.6 1013.0
21 14.11 штиль 0 4000 м 4/0
[Ci fib]
+22.2 +20.3 89 +28 +28 душно 1011.6 1012.0
00 15.11 штиль 0 4000 м 4/0
[Ci fib]
+19.4 +17.4 88 +21 +21 комфорт 1012.4 1012.0
03 15.11 штиль 0 4000 м ясно +25.0 +17.3 62 +29 +35 душно 1014.4 1014.0 +16.9
06 15.11 С 1 4000 м ясно +31.6 +18.3 45 +36 +51 опасность
солнечного
удара
1013.0 1013.0
09 15.11 С 1 4000 м 3/0
[Ci fib]
+31.0 +19.8 51 +37 +44 очень
душно
1010.6 1011.0
12 15.11 штиль 0 4000 м 6/4 600 м
[Sc Ac trans]
+27.0 +21.6 72 +34 +34 очень
душно
1011.7 1012.0 +33.8
15 15.11 штиль 0 4000 м 6/4 600 м
[Sc Ac trans]
+24.0 +21.0 83 +30 +30 очень
душно
1013.2 1013.0
18 15.11 штиль 0 4000 м 5/3 600 м
[Sc Ac trans]
+22.2 +18.4 79 +27 +27 душно 1013.0 1013.0
21 15.11 штиль 0 4000 м 5/3 600 м
[Sc Ac trans]
+21.2 +17.7 80 +25 +25 комфорт 1012.2 1012.0
00 16.11 штиль 0 4000 м 5/3 600 м
[Sc Ci fib]
+20.4 +18.5 89 +24 +24 комфорт 1012.2 1012.0
03 16.11 С 1 4000 м 3/0
[Ci fib]
+25.6 +19.4 69 +31 +36 очень
душно
1014.6 1015.0 +17.8
06 16.11 штиль 0 4000 м ясно +32.2 +20.2 49 +39 +55 опасность
солнечного
удара
1012.7 1013.0
09 16.11 В 1 4000 м 4/4 600 м
[Sc diur, vesp]
+32.8 +20.9 50 +40 +45 очень
душно
1010.0 1010.0
12 16.11 штиль 0 4000 м 3/3 600 м
[Sc]
+28.0 +23.7 77 +38 +38 очень
душно
1010.2 1010.0 +34.2
15 16.11 штиль 0 4000 м 3/3 600 м
[Sc]
+25.2 +22.2 83 +33 +33 очень
душно
1012.1 1012.0
18 16.11 штиль 0 4000 м 3/0
[Ci fib]
+23.0 +18.9 78 +29 +29 очень
душно
1012.2 1012.0
21 16.11 штиль 0 4000 м 3/0
[Ci fib]
+22.0 +18.2 79 +27 +27 душно 1011.4 1011.0
00 17.11 штиль 0 4000 м 3/0
[Ci fib]
+20.0 +17.4 85 +23 +23 комфорт 1011.3 1011.0
03 17.11 штиль 0 4000 м 3/0
[Ci fib]
+25.2 +17.5 62 +29 +35 душно 1014.0 1014.0 +17.1
06 17.11 СВ 2 4000 м 3/3 600 м
[Sc diur, vesp]
+30.2 +18.4 49 +35 +44 очень
душно
1012.3 1012.0

 

Местоположение метеостанции Balasore (Orissa, Индия): широта 21.52 долгота 86.93 высота над уровнем моря 20 м.

В архиве по умолчанию представлена погода в Balasore за последнюю неделю. Архивные данные за месяц целиком и за предыдущие месяцы, начиная с января 2011 года, Вы можете получить, выбрав интересующий диапазон дат из раскрывающегося списка и нажав кнопку "Ввод!".


*Определитесь, кто Вы:
робот инопланетянин человек

Внимание! Время в таблицах - всемирное. Для получения местного времени необходимо прибавить поправку, которая в Balasore равна 5.5 ч.

Смотрите также архив погоды в соседних городах и на ближайших метеорологических станциях:

Погода в Baripada (Orissa, Индия) (49 км)
Погода в Digha (West Bengal, Индия) (60 км)
Погода в Chandbali (Orissa, Индия) (85 км)
Погода в Contai (West Bengal, Индия) (90 км)
Погода в Midnapore (West Bengal, Индия) (108 км)
Погода в Haldia (West Bengal, Индия) (128 км)
Погода в Paradip Port (Orissa, Индия) (138 км)
Погода в Keongjhargarh (Orissa, Индия) (146 км)
Погода в Diamond Harbour (West Bengal, Индия) (150 км)
Погода в Uluberia (West Bengal, Индия) (151 км)

Пояснения к столбцам:

Ветер - указаны скорость ветра в м/с - средняя за 10 мин, порывы в срок и между сроками (в фигурных скобках) и направление, откуда дует ветер: С - северный, СВ - северо-восточный, В - восточный, ЮВ - юго-восточный, Ю - южный, ЮЗ - юго-западный, З - западный, СЗ - северо-западный.
Видимость - горизонтальная дальность видимости в метрах или километрах. При видимости от 1 до 10 км при отсутствии осадков обычно наблюдается дымка, при ухудшении видимости до 1 км и менее - туман. В сухую погоду видимость может ухудшаться дымом, пылью или мглою.
Явления - указаны атмосферные явления, наблюдавшиеся в срок или в последний час перед сроком; фигурными скобками обозначены явления, наблюдавшиеся между сроками (за 1-3 часа до срока); квадратными скобками обозначены град или гололедные отложения с указанием их диаметра в мм.
Облачность - указаны через наклонную черту общая и нижняя облачность в баллах и высота нижней границы облаков в метрах; квадратными скобками обозначены формы облаков: Ci - перистые, Cs - перисто-слоистые, Cc - перисто-кучевые, Ac - высококучевые, As - высокослоистые, Sc - слоисто-кучевые, Ns - слоисто-дождевые, Cu - кучевые, Cb - кучево-дождевые. Подробнее классификацию облаков см. в Атласе облаков (PDF).
T - Температура воздуха - температура, измеренная на высоте 2 м над землей.
Td - Температура точки росы - температура, при понижении до которой содержащийся в воздухе водяной пар достигнет насыщения.
f - Относительная влажность воздуха - влажноcть воздуха, измеренная на высоте 2 м над землей.
Te - Эффективная температура - температура, которую ощущает одетый по сезону человек в тени. Характеристика душности погоды. При расчете учитывается влияние влажности воздуха и скорости ветра на теплоощущения человека.
Tes - Эффективная температура на солнце - температура, которую ощущает человек, с поправкой на солнечный нагрев. Характеристика знойности погоды. Зависит от высоты солнца над горизонтом, облачности и скорости ветра. Ночью, в пасмурную погоду, а также при ветре 12 м/с и более поправка равна нулю.
P - Атмосферное давление - приведенное к уровню моря атмосферное давление.
Po - Атмосферное давление - измеренное на уровне метеостанции атмосферное давление.
Tmin - Минимальная температура - минимум температуры воздуха на высоте 2 м над землей.
Tmax - Максимальная температура - максимум температуры воздуха на высоте 2 м над землей.
R - Количество осадков - Количество выпавших осадков за период времени, мм. При наведении курсора мыши на число - период времени, за который выпало указанное количество осадков.
R24 - Количество осадков - Количество выпавших осадков за 24 часа, мм.
S - Снежный покров - Высота снежного покрова, см. При наведении курсора мыши на число - состояние снежного покрова и степень покрытия местности в баллах.